Presure
187 167 206 201 142 118 217 218 229 164 234 104 249 195 253 253 220 259 253 256 254 258 138 165 137 121 145 139 148 147 121 127 133 153 125 141 114 153 142 163 121 139 128 130 129
202 200 98 203 207 209 217 197 191 209 206 230 191 314 109 253 276 281 206 253 270 205 187 184 148 119 183 142 152 140 135 141 181 112 136 139 151 138 127 137 130 148 141 133 140
186 148 132 207 186 221 176 176 226 190 209 223 265 309 121 258 345 201 257 139 189 176 136 114 193 214 145 228 138 145 252 143 185 150 115 117 144 138 136 118 154 143 128 136 143
183 168 176 206 210 188 219 206 182 188 169 224 265 301 253 294 323 286 254 261 130 119 129 136 123 132 155 138 129 140 145 134 136 119 133 192 245 129 146 136 148 137 125 121 163
192 185 199 184 198 212 173 229 186 222 197 229 266 261 323 331 295 315 251 242 117 144 123 150 127 144 124 122 139 177 139 146 120 150 135 121 145 117 137 218 131 128 165 139 136
182 181 203 196 195 190 218 188 198 189 210 230 292 297 319 293 240 300 246 250 168 177 153 120 122 129 117 126 153 125 189 141 118 127 142 226 166 128 136 243 129 134 136 136 140
178 177 164 207 208 201 202 185 183 225 222 241 283 330 305 293 312 289 152 143 134 250 108 138 128 122 234 154 138 131 100 199 142 133 136 178 133 140 230 142 229 145 139 139 218
203 150 185 149 214 170 211 175 198 204 222 245 317 325 291 317 300 302 247 149 257 247 250 241 133 242 131 145 138 131 145 135 196 126 212 139 147 154 151 138 139 142 164 223 235
189 154 191 178 212 211 202 158 186 213 224 254 337 302 283 303 312 305 244 244 225 248 181 177 217 235 235 138 140 138 146 133 135 179 140 225 189 136 135 139 227 240 241 232 231
178 157 131 171 212 174 220 186 229 209 233 269 341 287 320 289 310 304 242 234 240 237 237 213 237 138 228 222 227 224 230 234 191 136 140 140 231 224 225 232 226 227 227 225 226
172 199 131 186 199 216 185 204 174 219 235 274 343 299 270 290 299 303 253 236 235 235 235 242 230 228 227 195 139 142 219 224 218 142 224 220 223 232 225 222 225 231 225 225 222
203 178 179 205 198 192 159 192 201 210 229 302 335 274 300 240 228 269 238 240 237 230 244 238 229 228 225 223 219 217 219 223 214 219 166 220 203 118 232 226 201 133 223 221 221
171 162 176 189 194 206 209 190 144 213 241 348 309 230 226 227 226 233 235 240 238 239 242 229 233 228 219 221 217 213 220 216 220 221 220 195 118 117 119 197 219 217 216 219 221
176 139 201 182 200 164 196 191 204 235 251 305 273 221 215 228 232 236 236 232 143 133 241 240 220 229 222 217 220 227 221 221 222 224 124 125 118 123 200 122 217 217 190 167 218
124 182 171 206 200 189 206 212 188 226 248 345 212 217 217 125 134 230 125 239 229 232 229 228 228 227 226 228 227 206 216 217 224 210 214 219 219 214 220 210 211 118 221 167 223
189 198 152 201 167 201 188 226 184 229 258 327 208 159 216 223 222 227 233 237 241 240 236 233 222 222 224 225 225 222 211 207 211 216 214 215 211 212 221 218 222 129 175 217 219
164 164 178 203 205 194 160 205 250 214 243 125 227 221 217 219 218 219 220 224 219 222 207 210 215 216 212 209 129 130 213 215 214 214 217 217 224 219 212 218 214 210 228 140 162
216 210 132 205 191 204 168 238 207 242 250 126 217 215 222 216 225 220 211 211 204 215 207 227 214 215 210 143 211 205 214 213 212 217 222 221 222 213 252 246 230 124 121 205 143
132 215 199 194 165 189 214 222 200 224 115 124 216 214 211 206 236 215 232 215 215 210 206 207 213 200 138 137 129 211 209 224 216 213 219 217 234 221 210 155 110 200 188 199 207
198 206 148 223 172 192 178 230 190 206 118 167 210 214 223 220 217 211 212 213 210 210 210 214 215 213 214 123 200 125 165 216 214 220 230 217 210 205 201 149 201 198 209 198 188
193 180 219 207 168 211 203 194 233 258 273 216 205 214 233 201 233 228 236 230 223 218 223 223 209 231 126 124 181 186 202 222 223 215 207 205 199 200 196 198 198 204 189 200 200
174 200 210 174 176 165 180 193 187 248 261 212 207 217 205 233 225 230 223 221 218 217 207 150 210 215 125 156 212 241 226 214 212 205 202 203 201 205 199 204 189 191 200 192 189
238 239 179 165 179 230 242 197 197 281 238 218 206 212 219 227 223 217 216 215 210 210 206 126 207 215 244 246 232 217 210 204 198 203 201 200 195 200 199 193 197 191 190 192 194
246 233 176 241 187 219 219 194 245 259 227 218 212 224 216 215 209 213 209 209 205 211 201 231 238 247 239 212 208 202 199 197 201 198 205 209 203 197 188 187 191 185 196 193 200
236 178 242 183 239 220 186 279 183 120 225 182 209 208 222 212 206 206 209 205 210 205 208 244 197 233 206 205 196 198 199 197 198 205 202 201 196 193 194 188 196 198 192 191 201
180 175 165 258 230 240 177 189 253 242 225 211 222 210 198 212 208 206 213 202 206 206 199 221 212 204 203 200 195 195 197 198 197 189 188 188 195 195 195 190 192 190 191 192 202
241 234 259 250 228 258 210 176 239 231 222 215 214 206 203 211 208 208 208 207 207 205 205 202 209 198 199 200 198 196 196 191 195 196 193 192 193 191 192 192 192 195 195 205 204
Wind_Speed
67 63 65 64 37 38 72 71 66 45 59 29 65 47 39 37 37 36 33 30 33 28 75 35 79 46 73 60 51 65 48 51 62 63 49 66 31 57 57 54 41 68 53 59 59
64 64 39 68 67 66 71 52 52 49 50 59 49 47 34 40 42 33 38 30 25 35 56 40 78 29 54 61 70 68 52 58 62 33 65 56 62 50 49 52 52 70 66 55 69
76 48 41 69 41 81 38 43 68 50 52 61 66 48 25 44 38 31 25 29 41 58 26 40 46 50 71 35 65 71 32 63 27 65 33 30 62 64 53 43 73 65 50 59 69
66 56 58 70 70 40 72 56 46 51 34 64 66 49 50 45 30 22 23 23 34 24 29 53 47 54 67 67 45 63 72 49 48 29 53 51 35 47 74 65 61 61 44 44 68
68 69 67 45 59 71 39 72 47 57 50 65 63 57 43 31 27 21 19 20 29 61 37 64 47 66 37 38 61 55 42 67 47 69 57 42 66 43 64 43 48 49 57 66 66
68 64 67 61 54 47 69 40 47 46 53 65 63 51 29 27 26 15 18 17 28 31 65 29 37 42 39 52 68 49 28 60 40 50 61 27 48 50 59 33 49 57 63 66 72
66 56 52 66 67 55 52 39 46 56 60 70 69 28 23 23 12 13 41 50 41 24 40 53 37 35 26 69 58 46 31 46 63 52 61 39 52 63 29 64 36 58 65 67 43
63 42 57 38 74 37 60 38 49 49 58 71 47 23 23 8 12 5 16 30 21 24 25 23 33 28 42 58 50 44 63 44 42 43 30 58 64 51 67 56 59 66 57 41 36
59 47 55 27 69 64 48 22 42 51 56 79 22 26 24 13 8 6 17 16 26 24 28 27 26 29 30 46 56 49 56 45 50 45 51 28 35 51 55 60 34 30 28 30 32
62 49 32 29 69 32 67 33 57 42 59 77 20 29 7 14 3 5 18 14 18 19 19 24 31 41 32 32 33 33 31 29 35 45 49 50 31 32 30 28 31 29 29 33 35
50 68 31 34 54 71 26 44 37 47 57 72 21 23 24 14 7 6 21 20 21 23 23 30 32 34 36 34 39 39 30 27 26 49 28 31 31 30 29 32 32 30 31 31 32
70 50 47 68 47 25 24 35 31 38 53 56 22 22 15 15 14 13 16 22 23 23 25 32 34 35 34 32 32 29 29 27 28 28 41 29 29 33 30 30 33 48 31 32 32
43 48 47 37 34 53 53 30 23 35 62 28 24 21 15 15 15 14 16 19 23 24 29 32 35 34 31 33 30 27 28 29 28 28 29 27 36 37 37 29 27 29 31 31 31
58 32 67 32 62 31 45 31 35 51 66 37 24 23 18 17 15 14 18 20 25 33 25 32 28 31 30 27 28 26 28 29 29 26 33 37 38 39 30 31 27 28 33 38 28
34 39 33 71 60 25 48 42 34 44 59 18 30 24 20 31 30 16 31 22 22 25 24 24 28 30 28 27 27 29 25 27 24 21 19 21 23 29 19 22 28 44 28 39 24
67 68 37 56 37 47 40 56 27 49 64 22 28 29 21 19 17 16 16 18 23 26 26 28 23 22 24 25 25 23 20 20 21 22 17 16 21 23 20 22 25 48 35 23 22
45 39 52 54 58 48 28 33 66 32 49 36 26 23 22 20 19 17 15 16 16 18 17 18 21 21 19 18 24 24 23 23 22 20 16 20 21 18 24 24 21 23 17 45 41
71 70 36 64 34 48 35 68 24 58 51 36 26 21 23 20 20 19 17 16 17 15 15 22 21 22 22 24 22 23 22 20 20 19 18 20 19 21 14 16 16 40 54 23 52
44 77 69 59 37 45 43 53 20 39 25 28 28 21 20 19 21 19 20 17 17 17 19 21 22 20 19 21 24 23 23 19 16 17 18 16 13 15 18 28 44 24 35 28 23
75 75 46 73 41 32 35 61 26 21 30 35 27 22 22 20 20 20 20 20 21 23 23 22 22 22 22 25 22 28 26 17 16 17 16 17 19 20 23 34 26 29 21 28 39
65 50 75 61 43 53 46 31 45 27 31 36 30 24 23 23 21 20 19 19 21 21 20 21 21 23 23 27 22 22 21 18 19 18 19 21 23 24 28 26 27 23 36 29 31
53 59 70 49 46 40 37 33 26 30 32 39 32 25 24 23 21 21 21 23 23 23 23 19 23 21 28 29 22 21 23 23 21 23 25 25 26 23 25 22 35 34 29 36 39
81 86 56 39 47 60 66 38 30 41 37 38 31 26 24 25 25 24 25 25 25 25 25 23 23 22 25 25 23 21 21 23 24 24 26 25 28 24 25 30 28 35 38 40 40
92 80 46 72 51 57 48 31 39 43 41 38 31 28 26 27 25 25 24 25 25 26 26 25 25 26 24 23 25 26 25 26 26 28 26 22 23 25 34 39 37 43 39 41 41
80 51 73 53 67 51 38 50 26 27 42 34 32 30 33 30 26 26 27 27 27 27 27 27 31 27 28 27 28 28 27 29 27 25 26 23 29 30 34 42 40 42 43 45 46
57 49 36 69 59 47 30 32 47 46 43 40 34 32 27 32 31 30 30 31 30 30 33 25 27 30 29 30 31 30 31 27 26 31 33 34 35 32 35 42 43 45 46 47 50
73 67 72 60 50 56 43 31 50 47 42 39 36 35 32 34 32 32 31 31 32 33 32 30 31 33 32 31 29 33 28 29 29 31 31 36 39 41 41 43 47 48 49 54 51
Wind_Direction
300 297 312 312 292 288 323 326 326 306 332 301 330 295 310 304 282 291 273 263 238 219 234 251 233 264 239 240 249 250 260 266 256 248 267 259 270 247 259 257 270 263 275 274 274
307 309 270 313 318 319 321 312 311 325 317 331 320 315 271 303 312 283 263 246 246 223 230 238 232 241 241 246 239 249 255 254 251 253 264 262 252 258 270 270 265 257 265 270 270
297 289 283 315 305 320 307 301 322 305 322 329 329 317 275 310 311 272 269 239 234 227 221 233 237 227 245 227 256 243 224 248 245 248 254 268 257 263 269 266 257 271 278 266 266
296 297 303 313 315 300 322 321 298 301 288 329 327 318 318 312 305 292 268 244 252 234 224 246 234 247 242 255 252 247 246 257 256 253 271 254 242 277 262 276 276 275 277 278 263
297 303 305 307 315 318 298 319 303 329 316 328 326 322 317 310 300 301 263 242 229 240 254 231 247 239 246 252 255 239 256 251 259 249 268 264 266 269 278 237 280 279 272 272 278
298 300 305 306 310 304 319 307 321 311 326 327 325 320 309 305 270 291 257 241 240 242 230 239 251 259 243 255 246 249 236 261 254 260 265 247 268 275 274 240 280 279 282 278 276
297 287 288 305 311 311 323 301 300 328 330 328 325 316 307 301 299 270 239 235 252 202 249 246 258 248 199 243 243 264 263 236 262 272 271 264 272 272 243 276 253 278 277 277 258
290 266 301 279 309 277 319 290 313 320 331 330 323 309 303 298 280 254 228 238 195 199 190 187 244 180 259 253 261 264 258 268 245 266 247 273 269 270 270 276 277 274 271 263 260
284 275 301 276 306 308 317 289 306 322 329 330 313 309 301 286 269 224 217 208 202 182 219 227 203 187 187 258 259 259 253 261 265 260 270 244 260 271 272 271 257 256 257 259 259
284 277 253 268 305 272 310 299 319 331 329 329 303 306 280 281 315 191 197 208 184 187 187 209 184 250 194 207 206 216 222 227 249 262 265 266 238 246 256 255 259 258 256 257 259
293 289 253 290 299 306 302 312 293 327 326 328 292 289 291 269 216 222 188 199 195 189 189 187 191 192 199 220 247 253 231 229 233 261 234 243 251 252 253 255 259 255 260 258 258
283 276 283 296 298 291 271 295 319 328 325 322 289 288 255 280 252 204 206 195 196 202 194 191 200 200 205 211 218 226 233 230 238 240 263 248 254 263 254 258 265 278 263 263 264
281 272 286 281 287 295 302 291 261 323 323 303 287 287 282 265 248 233 214 202 201 199 191 198 201 204 214 216 223 230 235 237 238 239 243 256 260 265 272 270 267 266 267 266 266
277 259 288 248 290 266 298 287 298 317 322 299 284 281 273 264 242 228 212 207 245 250 198 202 211 210 215 225 230 226 226 234 237 243 260 263 264 272 265 287 267 265 273 280 268
236 263 252 289 286 258 295 301 286 315 320 273 285 272 267 247 242 231 247 208 205 201 194 194 203 210 213 217 216 229 234 242 244 251 253 257 259 265 264 263 263 287 269 280 267
277 276 254 285 250 284 285 301 278 311 316 258 271 248 264 252 246 236 221 216 210 204 195 198 200 209 216 218 222 230 238 247 252 253 257 262 259 258 266 258 261 279 279 267 266
257 238 268 274 279 279 258 285 301 303 308 252 267 263 259 250 243 233 229 223 216 210 217 216 211 215 219 224 262 271 242 243 249 257 257 253 255 252 255 253 262 266 251 289 284
264 268 233 274 254 274 255 294 282 303 299 255 260 259 258 248 241 227 220 220 214 222 221 219 223 220 223 258 231 236 240 243 245 251 257 247 247 243 224 230 238 290 291 258 283
242 265 263 261 239 263 277 285 270 296 245 255 256 250 245 242 231 228 217 223 220 221 222 229 229 231 256 269 281 239 243 235 239 244 248 249 225 231 237 276 291 255 268 263 270
254 254 240 265 228 248 244 280 252 277 248 253 251 248 243 240 231 231 226 220 215 215 218 222 225 227 232 270 245 284 271 235 242 244 228 233 239 243 250 279 258 260 270 271 275
250 234 257 255 227 260 258 242 282 255 231 248 243 240 234 237 223 221 214 212 213 216 212 213 221 215 281 280 245 251 241 224 220 223 231 233 245 250 260 265 270 280 276 284 287
235 240 247 219 223 236 239 237 241 245 221 242 237 234 236 220 220 213 209 208 210 209 215 249 217 215 280 270 226 197 205 214 218 225 236 240 248 256 265 275 276 282 288 287 291
242 247 212 222 225 258 266 241 244 227 225 232 232 227 226 220 214 213 211 209 211 214 217 263 220 216 203 195 197 209 221 233 244 244 250 256 263 270 273 274 279 282 286 287 291
240 237 216 247 230 252 249 230 242 218 223 226 224 220 221 221 226 219 219 217 223 217 228 210 204 198 193 201 209 227 237 244 248 257 261 262 263 271 273 277 279 285 283 288 296
228 209 240 222 252 241 222 233 229 243 219 227 220 220 216 222 226 223 222 226 218 226 219 205 232 191 213 219 232 230 236 246 256 262 267 267 269 272 277 283 286 289 292 295 300
204 218 214 244 240 219 223 220 211 207 214 220 211 214 225 222 222 223 217 225 224 222 228 211 214 226 227 232 246 246 248 256 262 268 274 276 277 275 277 283 287 290 295 298 298
226 229 235 235 215 224 217 223 208 208 213 215 210 216 222 224 222 221 220 224 225 226 229 234 223 243 247 248 252 253 262 268 269 271 276 279 281 285 288 290 291 293 297 298 300